Weather History for Paris, IL

Change the Weather History Date:

Monday, October 1, 2012

  Actual Average (KHUF) Record (KHUF)
Temperature  
Mean Temperature 56 °F 60 °F  
Max Temperature 63 °F 72 °F 90 °F (1971)
Min Temperature 49 °F 47 °F 33 °F (1958)
Degree Days  
Heating Degree Days 9 7  
Month to date heating degree days 7  
Since 1 July heating degree days 85  
Cooling Degree Days 0 1  
Month to date cooling degree days 1  
Year to date cooling degree days 979  
Growing Degree Days 6 (Base 50)    
Moisture  
Dew Point 47 °F    
Average Humidity 72    
Maximum Humidity 83    
Minimum Humidity 59    
Precipitation  
Precipitation 0.00 in 0.11 in 2.00 in (1977)
Month to date precipitation 0.11  
Year to date precipitation 34.81  
Sea Level Pressure  
Sea Level Pressure 29.82 in    
Wind  
Wind Speed 5 mph (NE)    
Max Wind Speed 12 mph    
Max Gust Speed 16 mph    
Visibility 10 miles    
Events Rain    
T = Trace of Precipitation, MM = Missing Value Source: NWS Daily Summary

Daily Weather History Graph

Daily Weather History Graph

Search for Another Location

Airport:

Trip Planner

Search our weather history database for the weather conditions in past years. The results will help you decide how hot, cold, wet, or windy it might be!

Date:

Astronomy

Oct. 01, 2012 Rise Set
Actual Time 6:47 AM CDT 6:32 PM CDT
Civil Twilight 6:20 AM CDT 6:59 PM CDT
Nautical Twilight 5:49 AM CDT 7:30 PM CDT
Astronomical Twilight 5:17 AM CDT 8:01 PM CDT
Moon 7:09 PM CDT (10/1) 8:16 AM CDT (10/1)
Length of Visible Light 12h 38m
Length of Day
11h 44m
Full, 98% of the Moon is Illuminated
Oct 1
Full
Oct 8
Last Quarter
Oct 15
New
Oct 21
First Quarter
Oct 29
Full

Hourly Weather History & Observations

Time (CDT) Temp. Dew Point Humidity Pressure Visibility Wind Dir Wind Speed Gust Speed Precip Events Conditions
12:15 AM 53.1 °F 45.0 °F 74% 29.90 in 10.0 mi NE 3.5 mph - N/A   Clear
12:35 AM 52.3 °F 44.8 °F 75% 29.90 in 10.0 mi NE 3.5 mph - N/A   Clear
12:55 AM 51.3 °F 44.8 °F 78% 29.89 in 10.0 mi NE 3.5 mph - N/A   Clear
1:15 AM 50.9 °F 44.8 °F 80% 29.89 in 10.0 mi Calm Calm - N/A   Clear
1:35 AM 50.5 °F 44.6 °F 80% 29.89 in 10.0 mi Calm Calm - N/A   Clear
1:55 AM 50.5 °F 44.6 °F 80% 29.89 in 10.0 mi Calm Calm - N/A   Clear
2:15 AM 50.0 °F 44.6 °F 82% 29.89 in 10.0 mi Calm Calm - N/A   Clear
2:35 AM 50.9 °F 44.8 °F 80% 29.88 in 10.0 mi NE 3.5 mph - N/A   Clear
2:55 AM 50.7 °F 44.6 °F 80% 29.87 in 10.0 mi NE 3.5 mph - N/A   Clear
3:15 AM 51.8 °F 44.6 °F 76% 29.86 in 10.0 mi NE 4.6 mph - N/A   Clear
3:35 AM 50.4 °F 44.6 °F 81% 29.86 in 7.0 mi NE 3.5 mph - N/A   Clear
3:55 AM 50.0 °F 44.6 °F 82% 29.86 in 10.0 mi NE 4.6 mph - N/A   Clear
4:15 AM 49.6 °F 44.6 °F 83% 29.86 in 10.0 mi NE 3.5 mph - N/A   Clear
4:35 AM 50.0 °F 44.6 °F 82% 29.86 in 10.0 mi NE 3.5 mph - N/A   Clear
4:55 AM 50.0 °F 44.6 °F 82% 29.86 in 10.0 mi NE 3.5 mph - N/A   Clear
5:15 AM 50.2 °F 44.6 °F 81% 29.85 in 10.0 mi NE 4.6 mph - N/A   Clear
5:35 AM 50.2 °F 44.6 °F 81% 29.86 in 10.0 mi ENE 5.8 mph - N/A   Clear
5:55 AM 50.0 °F 44.6 °F 82% 29.86 in 7.0 mi NE 5.8 mph - N/A   Clear
6:15 AM 50.0 °F 44.6 °F 82% 29.87 in 10.0 mi NE 4.6 mph - N/A   Clear
6:35 AM 49.8 °F 44.6 °F 82% 29.86 in 10.0 mi NE 6.9 mph - N/A   Clear
6:55 AM 49.6 °F 44.6 °F 83% 29.86 in 10.0 mi NNE 4.6 mph - N/A   Clear
7:15 AM 50.0 °F 44.6 °F 82% 29.86 in 7.0 mi NE 5.8 mph - N/A   Clear
7:35 AM 50.4 °F 44.8 °F 81% 29.86 in 10.0 mi NE 8.1 mph - N/A   Clear
7:55 AM 51.8 °F 44.6 °F 76% 29.86 in 7.0 mi ENE 6.9 mph - N/A   Clear
8:15 AM 52.2 °F 45.5 °F 78% 29.85 in 10.0 mi NE 8.1 mph - N/A   Clear
8:35 AM 53.4 °F 45.7 °F 75% 29.85 in 10.0 mi NE 8.1 mph - N/A   Clear
8:55 AM 54.7 °F 46.4 °F 74% 29.85 in 7.0 mi NE 9.2 mph - N/A   Clear
9:15 AM 55.4 °F 46.4 °F 72% 29.85 in 7.0 mi NE 9.2 mph - N/A   Clear
9:35 AM 56.5 °F 46.6 °F 69% 29.85 in 10.0 mi NE 6.9 mph - N/A   Clear
9:55 AM 57.2 °F 46.9 °F 69% 29.85 in 10.0 mi NE 4.6 mph - N/A   Clear
10:15 AM 57.9 °F 47.3 °F 68% 29.85 in 10.0 mi NE 6.9 mph - N/A   Clear
10:35 AM 58.6 °F 47.5 °F 66% 29.85 in 10.0 mi NE 5.8 mph - N/A   Clear
10:55 AM 59.0 °F 48.2 °F 67% 29.85 in 10.0 mi NE 8.1 mph - N/A   Clear
11:15 AM 60.3 °F 48.2 °F 64% 29.84 in 10.0 mi ENE 10.4 mph - N/A   Clear
11:35 AM 60.8 °F 48.4 °F 64% 29.84 in 10.0 mi NE 9.2 mph - N/A   Clear
11:55 AM 61.0 °F 48.6 °F 64% 29.83 in 10.0 mi NE 8.1 mph - N/A   Clear
12:15 PM 61.2 °F 48.4 °F 63% 29.82 in 10.0 mi NE 8.1 mph - N/A   Clear
12:35 PM 61.7 °F 48.4 °F 62% 29.82 in 10.0 mi NE 10.4 mph - N/A   Clear
12:55 PM 62.1 °F 48.9 °F 62% 29.82 in 7.0 mi NE 8.1 mph - N/A   Scattered Clouds
1:15 PM 62.6 °F 48.6 °F 60% 29.81 in 7.0 mi NE 9.2 mph - N/A   Mostly Cloudy
1:35 PM 62.1 °F 48.4 °F 61% 29.80 in 10.0 mi NE 10.4 mph - N/A   Overcast
1:55 PM 62.1 °F 48.6 °F 61% 29.79 in 7.0 mi NNE 9.2 mph - N/A   Mostly Cloudy
2:15 PM 63.0 °F 48.6 °F 59% 29.79 in 10.0 mi NE 8.1 mph - N/A   Scattered Clouds
2:35 PM 62.6 °F 48.2 °F 59% 29.78 in 10.0 mi NE 10.4 mph 16.1 mph N/A   Clear
2:55 PM 62.8 °F 48.2 °F 59% 29.77 in 10.0 mi NNE 11.5 mph - N/A   Clear
3:15 PM 63.1 °F 48.6 °F 59% 29.77 in 7.0 mi NNE 9.2 mph - N/A   Clear
3:35 PM 63.0 °F 48.7 °F 60% 29.76 in 10.0 mi NNE 8.1 mph - N/A   Clear
3:55 PM 62.6 °F 48.2 °F 59% 29.76 in 10.0 mi NNE 5.8 mph 16.1 mph N/A   Scattered Clouds
4:15 PM 62.1 °F 49.3 °F 63% 29.76 in 10.0 mi NNE 8.1 mph - N/A   Mostly Cloudy
4:35 PM 61.7 °F 49.1 °F 63% 29.76 in 10.0 mi NNE 6.9 mph - N/A   Overcast
4:55 PM 60.8 °F 50.0 °F 68% 29.77 in 10.0 mi NNE 10.4 mph - N/A   Overcast
5:15 PM 61.2 °F 48.7 °F 64% 29.76 in 10.0 mi NNE 10.4 mph 16.1 mph N/A   Overcast
5:35 PM 60.8 °F 49.1 °F 65% 29.76 in 10.0 mi NNE 8.1 mph - N/A   Overcast
5:55 PM 60.8 °F 50.0 °F 68% 29.77 in 10.0 mi NNE 6.9 mph - N/A   Overcast
6:15 PM 59.5 °F 49.8 °F 70% 29.77 in 7.0 mi NNE 5.8 mph - N/A   Light Drizzle
6:35 PM 59.0 °F 50.0 °F 72% 29.77 in 10.0 mi NNE 8.1 mph - N/A   Light Drizzle
6:55 PM 59.0 °F 49.5 °F 71% 29.77 in 10.0 mi NE 6.9 mph - N/A   Overcast
7:15 PM 58.8 °F 49.3 °F 71% 29.77 in 10.0 mi NNE 9.2 mph - N/A   Overcast
7:35 PM 58.6 °F 49.1 °F 71% 29.76 in 10.0 mi NNE 10.4 mph - N/A   Overcast
7:55 PM 58.5 °F 49.1 °F 71% 29.77 in 10.0 mi NNE 8.1 mph - N/A   Overcast
8:15 PM 58.1 °F 49.5 °F 73% 29.77 in 10.0 mi NNE 8.1 mph - N/A Rain Light Rain
8:35 PM 57.6 °F 49.6 °F 75% 29.77 in 10.0 mi NNE 5.8 mph - N/A   Overcast
8:55 PM 57.7 °F 49.5 °F 74% 29.78 in 10.0 mi NNE 5.8 mph - N/A   Overcast
9:15 PM 57.6 °F 49.5 °F 74% 29.77 in 10.0 mi North 6.9 mph - N/A   Overcast
9:35 PM 57.6 °F 49.5 °F 74% 29.78 in 10.0 mi NNE 4.6 mph - N/A   Light Drizzle
9:55 PM 57.2 °F 49.5 °F 75% 29.77 in 10.0 mi North 6.9 mph - N/A   Overcast
10:15 PM 57.2 °F 49.3 °F 75% 29.77 in 10.0 mi NNE 5.8 mph - N/A Rain Light Rain
10:35 PM 57.0 °F 49.3 °F 75% 29.77 in 10.0 mi NNE 4.6 mph - N/A   Overcast
10:55 PM 56.8 °F 49.1 °F 75% 29.78 in 7.0 mi North 5.8 mph - N/A Rain Light Rain
11:15 PM 56.7 °F 49.3 °F 76% 29.78 in 10.0 mi North 3.5 mph - N/A   Overcast
11:35 PM 56.5 °F 49.1 °F 76% 29.77 in 10.0 mi North 4.6 mph - N/A   Overcast
11:55 PM 56.5 °F 48.9 °F 76% 29.77 in 10.0 mi NNE 4.6 mph - N/A   Overcast